GW1490 Weather Reports


Display with metric or nautical units.
time (UTC)temp
F
wind
direction
speed
MPH
gust
MPH
rain 1hr
in
rain 24hr
in
rain mn
in
humidity
%
barometer
mb
20260906112655 70 266 0.0 0.0 0.00 0.00 0.00 99 995.5
20260906111739 70 271 0.0 0.0 0.00 0.00 0.00 99 995.5
20260906111323 70 280 0.0 0.0 0.00 0.00 0.00 99 995.5
20260906110906 70 269 0.0 0.0 0.00 0.00 0.00 99 995.5
20260906110435 70 274 0.0 0.0 0.00 0.00 0.00 99 995.5
20260906110021 70 330 0.0 0.0 0.00 0.00 0.00 99 995.2
20260906105120 71 272 0.0 0.0 0.00 0.00 0.00 99 995.2
20260906104650 71 231 0.0 0.0 0.00 0.00 0.00 99 995.2
20260906104232 71 233 0.0 0.0 0.00 0.00 0.00 99 995.2
20260906103815 71 233 0.0 0.0 0.00 0.00 0.00 99 995.2
20260906103359 71 233 0.0 0.0 0.00 0.00 0.00 99 994.9
20260906102442 71 243 0.0 0.0 0.00 0.00 0.00 99 994.5
20260906102010 71 232 0.0 0.0 0.00 0.00 0.00 99 994.5
20260906101125 71 254 0.0 0.0 0.00 0.00 0.00 99 994.5
20260906100223 71 242 0.0 0.0 0.00 0.00 0.00 99 994.9
20260906095751 71 247 0.0 0.0 0.00 0.00 0.00 99 994.5
20260906095321 71 234 0.0 0.0 0.00 0.00 0.00 99 994.9
20260906094902 71 241 0.0 0.0 0.00 0.00 0.00 99 994.9
20260906093946 71 246 0.0 0.0 0.00 0.00 0.00 99 994.9
20260906093529 71 256 0.0 0.0 0.00 0.00 0.00 99 994.9
20260906093114 71 239 0.0 0.0 0.00 0.00 0.00 99 994.5
20260906092656 71 242 0.0 0.0 0.00 0.00 0.00 99 994.5
20260906091340 71 225 0.0 0.0 0.00 0.00 0.00 99 994.5
20260906090908 71 234 0.0 0.0 0.00 0.00 0.00 99 994.9
20260906090002 70 243 0.0 0.0 0.00 0.00 0.00 99 994.5
20260906085530 70 240 0.0 0.0 0.00 0.00 0.00 99 994.5
20260906085113 71 254 0.0 0.0 0.00 0.00 0.00 99 994.5
20260906084642 71 233 0.0 0.0 0.00 0.00 0.00 99 994.5
20260906084212 71 239 0.0 0.0 0.00 0.00 0.00 99 994.9
20260906083739 71 247 0.0 0.0 0.00 0.00 0.00 99 994.5
20260906083323 70 238 0.0 0.0 0.00 0.00 0.00 99 994.5
20260906082904 71 244 0.0 0.0 0.00 0.00 0.00 99 994.5
20260906082433 71 241 0.0 0.0 0.00 0.00 0.00 99 994.5
20260906082002 71 233 0.0 0.0 0.00 0.00 0.00 99 994.5
20260906081515 71 233 0.0 0.0 0.00 0.00 0.00 99 994.5
20260906081044 71 243 0.0 0.0 0.00 0.00 0.00 99 994.5
20260906080614 71 231 0.0 0.0 0.00 0.00 0.00 99 994.5
20260906080144 71 230 0.0 0.0 0.00 0.00 0.00 99 994.9
20260906075726 71 231 0.0 0.0 0.00 0.00 0.00 99 994.9
20260906074837 71 240 0.0 0.0 0.00 0.00 0.00 99 994.9
20260906074422 71 247 0.0 0.0 0.00 0.00 0.00 99 994.5
20260906074004 72 249 0.0 0.0 0.00 0.00 0.00 99 994.9
20260906073533 72 229 0.0 0.0 0.00 0.00 0.00 99 994.5
20260906073116 72 230 0.0 0.0 0.00 0.00 0.00 99 994.9
20260906072227 72 238 0.0 0.0 0.00 0.00 0.00 99 994.5
20260906071756 72 273 0.0 0.0 0.00 0.00 0.00 99 994.5
20260906071340 72 231 0.0 0.0 0.00 0.00 0.00 99 994.5
20260906070422 72 231 0.0 0.0 0.00 0.00 0.00 99 994.2
20260906065518 72 235 0.0 0.0 0.00 0.00 0.00 99 994.5
20260906064630 72 229 0.0 0.0 0.00 0.00 0.00 99 994.5
20260906063725 72 229 0.0 0.0 0.00 0.00 0.00 99 994.5
20260906063307 72 229 0.0 0.0 0.00 0.00 0.00 99 994.5
20260906062851 72 230 0.0 0.0 0.00 0.00 0.00 99 994.5
20260906062436 72 230 0.0 0.0 0.00 0.00 0.00 99 994.5
20260906062002 72 249 0.0 0.0 0.00 0.00 0.00 99 994.5
20260906061531 72 239 0.0 0.0 0.00 0.00 0.00 99 994.5
20260906061114 72 232 0.0 0.0 0.00 0.00 0.00 99 994.5
20260906060657 72 244 0.0 0.0 0.00 0.00 0.00 99 994.5
20260906060242 72 238 0.0 0.0 0.00 0.00 0.00 99 994.5
20260906055825 72 246 0.0 0.0 0.00 0.00 0.00 99 994.5
20260906055410 72 233 0.0 0.0 0.00 0.00 0.00 99 994.5
20260906054954 72 242 0.0 0.0 0.00 0.00 0.00 99 994.5
20260906054053 72 253 0.0 0.0 0.00 0.00 0.00 99 994.5
20260906053639 72 235 0.0 0.0 0.00 0.00 0.00 99 994.5
20260906053208 72 230 0.0 0.0 0.00 0.00 0.00 99 994.5
20260906052737 72 228 0.0 0.0 0.00 0.00 0.00 99 994.9
20260906052306 72 230 0.0 0.0 0.00 0.00 0.00 99 994.9
20260906051834 72 230 0.0 0.0 0.00 0.00 0.00 99 994.5
20260906050918 73 229 0.0 0.0 0.00 0.00 0.00 99 994.5
20260906050503 73 230 0.0 0.0 0.00 0.00 0.00 99 994.9
20260906050033 73 233 0.0 0.0 0.00 0.00 0.00 99 994.9
20260906045616 73 230 0.0 0.0 0.00 0.00 0.00 99 994.5
20260906045159 73 233 0.0 0.0 0.00 0.00 0.00 99 994.5
20260906044743 73 264 0.0 0.0 0.00 0.00 0.00 99 994.2
20260906044312 72 300 0.0 0.0 0.00 0.00 0.00 99 994.2
20260906043840 72 235 0.0 0.0 0.00 0.00 0.00 99 994.5
20260906043410 72 228 0.0 0.0 0.00 0.00 0.00 99 994.5
20260906042509 72 227 0.0 0.0 0.00 0.00 0.00 99 994.2
20260906042054 72 223 0.0 0.0 0.00 0.00 0.00 99 994.2
20260906041622 73 226 0.0 0.0 0.00 0.00 0.00 99 994.2
20260906041136 73 226 0.0 0.0 0.00 0.00 0.00 99 994.2
20260906040719 73 228 0.0 0.0 0.00 0.00 0.00 99 994.2
20260906040302 73 232 0.0 0.0 0.00 0.00 0.00 99 994.2
20260906035832 73 232 0.0 0.0 0.00 0.00 0.00 99 994.2
20260906035415 73 232 0.0 0.0 0.00 0.00 0.00 99 994.2
20260906034958 73 228 0.0 0.0 0.00 0.00 0.00 99 994.2
20260906034545 73 227 0.0 0.0 0.00 0.00 0.00 99 994.2
20260906033610 73 228 0.0 0.0 0.00 0.00 0.00 99 994.5
20260906033156 73 230 0.0 0.0 0.00 0.00 0.00 99 994.5
20260906032721 73 230 0.0 0.0 0.00 0.00 0.00 99 994.5
20260906032250 73 229 0.0 0.0 0.00 0.00 0.00 99 994.5
20260906031348 74 211 0.0 0.0 0.00 0.00 0.00 99 994.9
20260906030444 73 229 0.0 0.0 0.00 0.00 0.00 99 994.5
20260906030027 74 228 0.0 0.0 0.00 0.00 0.00 99 994.5
20260906025556 74 240 0.0 0.0 0.00 0.00 0.00 99 994.9
20260906025123 74 231 0.0 0.0 0.00 0.00 0.00 99 994.9
20260906024650 74 228 0.0 0.0 0.00 0.00 0.00 99 994.9
20260906024219 74 224 0.0 0.0 0.00 0.00 0.00 99 994.9
20260906023746 74 224 0.0 0.0 0.00 0.00 0.00 99 995.2
20260906022844 74 230 0.0 0.0 0.00 0.00 0.00 99 994.9
20260906022412 74 229 0.0 0.0 0.00 0.00 0.00 99 994.9
20260906021956 74 231 0.0 0.0 0.00 0.00 0.00 99 994.9
20260906021526 74 231 0.0 0.0 0.00 0.00 0.00 99 995.2
20260906021109 74 230 0.0 0.0 0.00 0.00 0.00 99 994.5
20260906020621 74 234 0.0 0.0 0.00 0.00 0.00 99 994.5
20260906020150 74 229 0.0 0.0 0.00 0.00 0.00 99 994.5
20260906015305 74 258 0.0 0.0 0.00 0.00 0.00 99 994.5
20260906014829 74 234 0.0 0.0 0.00 0.00 0.00 99 994.5
20260906013941 74 227 0.0 0.0 0.00 0.00 0.00 99 994.5
20260906013524 74 227 0.0 0.0 0.00 0.00 0.00 99 994.5
20260906013051 75 236 0.0 0.0 0.00 0.00 0.00 99 994.2
20260906011731 75 229 0.0 0.0 0.00 0.00 0.00 99 993.5
20260906011245 75 230 0.0 0.0 0.00 0.00 0.00 99 993.9
20260906010341 76 231 0.0 0.0 0.00 0.00 0.00 99 993.5
20260906005925 76 233 0.0 0.0 0.00 0.00 0.00 99 993.9
20260906005508 76 227 0.0 0.0 0.00 0.00 0.00 99 993.9
20260906005036 76 230 0.0 0.0 0.00 0.00 0.00 99 993.9
20260906004132 76 226 0.0 0.0 0.00 0.00 0.00 99 993.5
20260906003714 76 225 0.0 0.0 0.00 0.00 0.00 99 993.9
20260906003258 76 226 0.0 0.0 0.00 0.00 0.00 99 993.5
20260906002811 77 229 0.0 0.0 0.00 0.00 0.00 99 993.5
20260906002354 77 231 0.0 0.0 0.00 0.00 0.00 98 993.5
20260906001937 77 230 0.0 0.0 0.00 0.00 0.00 98 993.9
20260906001521 77 230 0.0 0.0 0.00 0.00 0.00 97 993.5
20260906001049 78 230 0.0 0.0 0.00 0.00 0.00 97 993.5
20260906000204 78 225 0.0 0.0 0.00 0.00 0.00 96 993.5
20260905235744 78 230 0.0 0.0 0.00 0.00 0.00 95 993.9
20260905235310 79 228 0.0 0.0 0.00 0.00 0.00 95 993.9
20260905234839 79 229 0.0 0.0 0.00 0.00 0.00 94 993.9
20260905234423 79 231 0.0 0.0 0.00 0.00 0.00 93 993.9
20260905234008 80 233 0.0 0.0 0.00 0.00 0.00 93 993.9
20260905233553 80 231 0.0 0.0 0.00 0.00 0.00 91 993.9
20260905232654 81 231 0.0 0.0 0.00 0.00 0.00 88 993.9
20260905232226 82 231 0.0 0.0 0.00 0.00 0.00 87 993.9
20260905231756 82 231 0.0 0.0 0.00 0.00 0.00 86 993.9
20260905230911 83 231 0.0 0.0 0.00 0.00 0.00 86 993.9
20260905230441 82 231 0.0 0.0 0.00 0.00 0.00 85 993.9
20260905230010 83 231 0.0 0.0 0.00 0.00 0.00 85 993.9
20260905225055 83 233 0.0 0.0 0.00 0.00 0.00 84 993.5
20260905224638 83 233 0.0 0.0 0.00 0.00 0.00 84 993.9
20260905224220 83 240 0.0 0.0 0.00 0.00 0.00 83 993.9
20260905223802 83 243 0.0 0.0 0.00 0.00 0.00 84 993.9
20260905223333 83 232 0.0 0.0 0.00 0.00 0.00 84 993.9
20260905222917 83 232 0.0 0.0 0.00 0.00 0.00 85 993.9
20260905222503 83 232 0.0 0.0 0.00 0.00 0.00 84 993.9
20260905222047 83 233 0.0 0.0 0.00 0.00 0.00 85 993.9
20260905221632 83 233 0.0 0.0 0.00 0.00 0.00 84 993.9
20260905220730 83 232 0.0 0.0 0.00 0.00 0.00 83 993.9
20260905215838 83 268 0.0 0.0 0.00 0.00 0.00 81 993.9
20260905214951 83 243 0.0 0.0 0.00 0.00 0.00 81 993.9
20260905214521 83 243 0.0 0.0 0.00 0.00 0.00 80 993.9
20260905214105 83 234 0.0 0.0 0.00 0.00 0.00 81 993.9
20260905213636 83 234 0.0 0.0 0.00 0.00 0.00 80 993.5
20260905212252 84 232 0.0 0.0 0.00 0.00 0.00 79 993.5
20260905211407 84 232 0.0 0.0 0.00 0.00 0.00 79 993.9
20260905210950 84 246 0.0 0.0 0.00 0.00 0.00 79 993.5
20260905210536 84 232 0.0 0.0 0.00 0.00 0.00 78 993.5
20260905210105 84 234 0.0 0.0 0.00 0.00 0.00 78 993.5
20260905205617 84 214 0.0 0.0 0.00 0.00 0.00 79 993.5
20260905204719 84 229 0.0 0.0 0.00 0.00 0.00 79 993.5
20260905204301 84 228 0.0 0.0 0.00 0.00 0.00 78 993.5
20260905203845 84 233 0.0 0.0 0.00 0.00 0.00 77 993.5
20260905203430 84 232 0.0 0.0 0.00 0.00 0.00 76 993.9
20260905203015 85 232 0.0 0.0 0.00 0.00 0.00 76 993.9
20260905202601 84 213 0.0 0.0 0.00 0.00 0.00 75 993.9
20260905202146 84 219 0.0 0.0 0.00 0.00 0.00 76 993.5
20260905201732 84 237 0.0 0.0 0.00 0.00 0.00 77 993.9
20260905201316 84 233 0.0 0.0 0.00 0.00 0.00 78 993.9
20260905200846 83 231 0.0 0.0 0.00 0.00 0.00 78 994.2
20260905200401 83 233 0.0 0.0 0.00 0.00 0.00 78 994.2
20260905195946 83 227 0.0 1.0 0.00 0.00 0.00 78 994.2
20260905195516 84 233 0.0 0.0 0.00 0.00 0.00 77 994.5
20260905195100 84 236 0.0 0.0 0.00 0.00 0.00 75 994.5
20260905194155 85 233 0.0 0.0 0.00 0.00 0.00 75 994.5
20260905193708 84 234 0.0 0.0 0.00 0.00 0.00 77 994.5
20260905193252 84 232 0.0 0.0 0.00 0.00 0.00 76 994.5
20260905191933 84 234 0.0 0.0 0.00 0.00 0.00 76 994.5
20260905191049 84 234 0.0 0.0 0.00 0.00 0.00 79 994.5
20260905190617 84 233 0.0 0.0 0.00 0.00 0.00 80 994.9
20260905185730 83 234 0.0 0.0 0.00 0.00 0.00 80 994.9
20260905185314 83 234 0.0 0.0 0.00 0.00 0.00 82 994.9
20260905184843 82 223 0.0 0.0 0.00 0.00 0.00 81 994.9
20260905184429 83 230 0.0 0.0 0.00 0.00 0.00 83 994.9
20260905183958 82 227 0.0 0.0 0.00 0.00 0.00 83 995.2
20260905183527 83 232 0.0 0.0 0.00 0.00 0.00 82 995.2
20260905183110 82 230 0.0 0.0 0.00 0.00 0.00 83 995.2
20260905182652 82 228 0.0 0.0 0.00 0.00 0.00 84 995.2
20260905182223 82 231 0.0 0.0 0.00 0.00 0.00 83 995.2
20260905181805 82 239 0.0 0.0 0.00 0.00 0.00 84 995.2
20260905180914 82 226 0.0 0.0 0.00 0.00 0.00 84 995.2
20260905180012 82 236 0.0 0.0 0.00 0.00 0.00 83 995.2
20260905175557 82 204 0.0 2.0 0.00 0.00 0.00 82 995.5
20260905175143 81 223 0.0 0.0 0.00 0.00 0.00 85 995.5
20260905174726 80 230 0.0 0.0 0.00 0.00 0.00 83 995.5
20260905174257 81 232 0.0 0.0 0.00 0.00 0.00 84 995.5
20260905173842 81 232 0.0 0.0 0.00 0.00 0.00 84 995.5
20260905172955 80 234 0.0 0.0 0.00 0.00 0.00 86 995.5
20260905172539 80 203 0.0 1.0 0.00 0.00 0.00 86 995.9
20260905172109 79 210 0.0 0.0 0.00 0.00 0.00 86 995.9
20260905171651 79 236 0.0 0.0 0.00 0.00 0.00 86 995.9
20260905171238 79 236 0.0 0.0 0.00 0.00 0.00 86 996.2
20260905170805 80 272 0.0 0.0 0.00 0.00 0.00 87 995.9
20260905170335 79 200 0.0 0.0 0.00 0.00 0.00 88 996.2
20260905165918 78 231 0.0 0.0 0.00 0.00 0.00 88 996.2
20260905165501 79 232 0.0 0.0 0.00 0.00 0.00 88 996.2
20260905165045 78 222 0.0 0.0 0.00 0.00 0.00 88 996.2
20260905164629 78 185 0.0 0.0 0.00 0.00 0.00 88 996.6
20260905164214 79 189 0.0 0.0 0.00 0.00 0.00 88 996.2
20260905163742 78 230 0.0 0.0 0.00 0.00 0.00 88 996.2
20260905163312 78 172 0.0 0.0 0.00 0.00 0.00 89 996.2
20260905162840 78 232 0.0 0.0 0.00 0.00 0.00 90 996.2
20260905161951 78 236 0.0 0.0 0.00 0.00 0.00 88 996.6
20260905161536 78 237 0.0 0.0 0.00 0.00 0.00 88 996.6
20260905160649 77 220 0.0 0.0 0.00 0.00 0.00 90 996.2
20260905155332 76 226 0.0 0.0 0.00 0.00 0.00 93 996.2
20260905154847 76 215 0.0 0.0 0.00 0.00 0.00 94 996.6
20260905154417 76 241 0.0 0.0 0.00 0.00 0.00 95 996.6
20260905153527 76 221 0.0 0.0 0.00 0.00 0.00 96 996.2
20260905153111 76 229 0.0 0.0 0.00 0.00 0.00 96 995.9
20260905152653 76 229 0.0 0.0 0.00 0.00 0.00 96 995.9
20260905152236 75 223 0.0 3.0 0.00 0.00 0.00 96 995.5
20260905151347 75 204 0.0 0.0 0.00 0.00 0.00 97 995.5
20260905150931 75 233 0.0 0.0 0.00 0.00 0.00 97 995.2
20260905150513 75 225 0.0 0.0 0.00 0.00 0.00 97 995.9
20260905150057 75 204 0.0 2.0 0.00 0.00 0.00 97 995.9
20260905145641 75 222 0.0 0.0 0.00 0.00 0.00 98 996.2
20260905145225 75 219 0.0 0.0 0.00 0.00 0.00 98 996.2
20260905144808 75 224 0.0 0.0 0.00 0.00 0.00 98 996.2
20260905144352 74 181 1.0 1.0 0.00 0.00 0.00 98 995.5
20260905143935 74 225 0.0 0.0 0.00 0.00 0.00 98 995.9
20260905143504 74 223 0.0 0.0 0.00 0.00 0.00 98 995.9
20260905143032 74 206 0.0 2.0 0.00 0.00 0.00 98 995.5
20260905142615 74 189 0.0 3.0 0.00 0.00 0.00 98 995.2
20260905142159 74 151 0.0 3.0 0.00 0.00 0.00 98 995.5
20260905141740 74 184 0.0 0.0 0.00 0.00 0.00 98 995.9
20260905141325 74 211 0.0 0.0 0.00 0.00 0.00 99 996.2
20260905140838 74 216 0.0 0.0 0.00 0.00 0.00 99 996.2
20260905140422 74 206 0.0 0.0 0.00 0.00 0.00 99 995.9
20260905140005 74 98 0.0 0.0 0.00 0.00 0.00 99 995.9
20260905135547 74 191 0.0 0.0 0.00 0.00 0.00 99 996.2
20260905135130 73 213 0.0 0.0 0.00 0.00 0.00 99 996.6
20260905134658 73 94 0.0 0.0 0.00 0.00 0.00 99 996.2
20260905134242 73 211 0.0 0.0 0.00 0.00 0.00 99 996.9
20260905132919 73 178 0.0 0.0 0.00 0.00 0.00 99 996.6
20260905132448 73 231 0.0 0.0 0.00 0.00 0.00 99 996.9
20260905132017 73 182 0.0 0.0 0.00 0.00 0.00 99 996.9
20260905131546 73 163 0.0 0.0 0.00 0.00 0.00 99 997.2
20260905131129 73 230 0.0 0.0 0.00 0.00 0.00 99 997.2
20260905130713 73 240 0.0 0.0 0.00 0.00 0.00 99 996.9
20260905125822 72 227 0.0 0.0 0.00 0.00 0.00 99 997.6
20260905125404 73 226 0.0 0.0 0.00 0.00 0.00 99 997.2
20260905124933 72 220 0.0 0.0 0.00 0.00 0.00 99 997.2
20260905124501 73 234 0.0 0.0 0.00 0.00 0.00 99 997.2
20260905124046 72 231 0.0 0.0 0.00 0.00 0.00 99 997.2
20260905123616 73 233 0.0 0.0 0.00 0.00 0.00 99 996.9
20260905123200 73 237 0.0 0.0 0.00 0.00 0.00 99 996.9
20260905122743 73 232 0.0 0.0 0.00 0.00 0.00 99 996.9
20260905121838 73 234 0.0 0.0 0.00 0.00 0.00 99 997.2
20260905120507 73 231 0.0 0.0 0.00 0.00 0.00 99 996.9
20260905120050 73 268 0.0 0.0 0.00 0.00 0.00 99 996.9
20260905115604 73 243 0.0 0.0 0.00 0.00 0.00 99 996.6
20260905115132 74 231 0.0 0.0 0.00 0.00 0.00 99 996.6
20260905114715 74 242 0.0 0.0 0.00 0.00 0.00 99 995.9
20260905114245 74 230 0.0 0.0 0.00 0.00 0.00 99 996.2
20260905113830 74 232 0.0 0.0 0.00 0.00 0.00 99 995.9